This is the latest recevied weather packets stored in our database for station/object EA7RX-4. If no packets are shown the sender has not sent any weather packets the latest 10 day(s).
| Time | Temp. | Humidity | Pressure | Rain* | Wind** | Luminosity | Snow |
|---|---|---|---|---|---|---|---|
| 1787591403 | 23.89° C | 39% | 1012.9 hPa | 0 mm | - | 54 W/m² | - |
| 1787590803 | 24.44° C | 38% | 1013.1 hPa | 0 mm | - | 125 W/m² | - |
| 1787590203 | 24.44° C | 37% | 1013.1 hPa | 0 mm | - | 110 W/m² | - |
| 1787589603 | 24.44° C | 37% | 1012.9 hPa | 0 mm | - | 112 W/m² | - |
| 1787589003 | 25° C | 36% | 1013.1 hPa | 0 mm | - | 324 W/m² | - |
| 1787588403 | 25° C | 36% | 1012.8 hPa | 0 mm | - | 416 W/m² | - |
| 1787587803 | 25° C | 35% | 1012.8 hPa | 0 mm | - | 123 W/m² | - |
| 1787587203 | 25° C | 35% | 1012.7 hPa | 0 mm | - | 449 W/m² | - |
| 1787586603 | 25.56° C | 34% | 1012.8 hPa | 0 mm | - | 539 W/m² | - |
| 1787586003 | 25° C | 35% | 1012.7 hPa | 0 mm | - | 174 W/m² | - |
| 1787585403 | 25° C | 34% | 1012.8 hPa | 0 mm | - | 710 W/m² | - |
| 1787584803 | 25° C | 34% | 1013 hPa | 0 mm | - | 574 W/m² | - |
| 1787584203 | 25° C | 34% | 1012.8 hPa | 0 mm | - | 409 W/m² | - |
| 1787583603 | 25° C | 35% | 1013.1 hPa | 0 mm | - | 284 W/m² | - |
| 1787583003 | 24.44° C | 35% | 1013.1 hPa | 0 mm | - | 224 W/m² | - |
| 1787582403 | 24.44° C | 35% | 1013.1 hPa | 0 mm | - | 194 W/m² | - |
| 1787581803 | 25° C | 35% | 1013.1 hPa | 0 mm | - | 661 W/m² | - |
| 1787581203 | 25.56° C | 34% | 1013.4 hPa | 0 mm | - | 145 W/m² | - |
| 1787580603 | 25° C | 35% | 1013.7 hPa | 0 mm | - | 819 W/m² | - |
| 1787580003 | 24.44° C | 36% | 1013.6 hPa | 0 mm | - | 203 W/m² | - |
| 1787579403 | 25° C | 36% | 1013.7 hPa | 0 mm | - | 1037 W/m² | - |
| 1787578803 | 24.44° C | 36% | 1014 hPa | 0 mm | - | 907 W/m² | - |
| 1787578203 | 24.44° C | 36% | 1013.8 hPa | 0 mm | - | 914 W/m² | - |
| 1787577603 | 25° C | 36% | 1013.9 hPa | 0 mm | - | 234 W/m² | - |
| 1787577003 | 24.44° C | 36% | 1014 hPa | 0 mm | - | 250 W/m² | - |
* Rain latest hour (hover to see other rain measurements)
** Current wind speed in m/s (hover to see current wind gust speed)